sat.trackr.live / text

‹ back to catalog

STARLINK-3875

NORAD 52483 · 2022-049AJ

PAYLOAD ACTIVE UNKNOWN

§ Identity

Operator
Country
US
Launch date
2022-05-06
Launch site
AFETR
Launch vehicle
Mass (kg)
RCS (m²)

Purposes: comms

External: N2YO · Heavens-Above · Gunter

§ Orbital elements

Epoch: 2026-09-19T22:33:57.339072Z

Period
93.82 min
Inclination
53.1600°
Eccentricity
0.0001644
Mean motion
15.34788534 rev/d
Perigee alt
460.4 km
Apogee alt
462.7 km
Semi-major
6,839.7 km
B*
-1.9417e-3
RAAN
245.9899°
Arg perigee
104.6629°
Mean anomaly
255.4556°
Rev number
24,310

§ Raw data

STARLINK-38751 52483U 22049AJ  26262.94024698 -.00066220  00000+0 -19417-2 0  99902 52483  53.1600 245.9899 0001644 104.6629 255.4556 15.34788534243108

JSON: /api/v1/satellites/52483 · /tle

For live sub-satellite position, see the globe view (requires WebGL).

§ Visibility from observer

Set your observer location to see the next 7 days of passes ≥ 10°. The values pass through the URL so the page stays shareable.

No JS? Fill the form by hand. The geolocation button needs JavaScript.